When you browse on this site, cookies collect data to enhance your experience and personalize the content and advertising you see.
Visit our Privacy Policy to learn more. By continuing to use the site, you agree to this use of cookies and data.
  • In Hungary
  • List of Countries
  • For 7 days
  • Water Temperature
  • Satellite Maps
  • Weather Map
  • News
  • Weather Widgets
  • user-avatar
    Login

    Hourly Weather Avola

    Today, 15 December, Saturday

    Time Temperature Precipitation Wind Pressure Humidity
    00:00 +12°C° 0.1 mm 4 mps 752 mmHg 83%
    01:00 +12°C° 0.1 mm 3 mps 752 mmHg 83%
    02:00 +12°C° 0.2 mm 3 mps 752 mmHg 82%
    03:00 +12°C° 0.2 mm 2 mps 752 mmHg 82%
    04:00 +12°C° 0.2 mm 2 mps 752 mmHg 82%
    05:00 +12°C° 0.4 mm 2 mps 752 mmHg 82%
    06:00 +12°C° 0.4 mm 2 mps 752 mmHg 82%
    07:00 +12°C° 0.4 mm 2 mps 753 mmHg 83%
    08:00 +13°C° 0.1 mm 2 mps 753 mmHg 77%
    09:00 +14°C° 0.1 mm 3 mps 753 mmHg 70%
    10:00 +16°C° 0.1 mm 3 mps 754 mmHg 64%
    11:00 +17°C° 0 mm 4 mps 754 mmHg 62%
    12:00 +17°C° 0 mm 4 mps 754 mmHg 60%
    13:00 +17°C° 0 mm 5 mps 754 mmHg 58%
    14:00 +16°C° 0 mm 5 mps 754 mmHg 60%
    15:00 +15°C° 0 mm 5 mps 754 mmHg 62%
    16:00 +15°C° 0 mm 5 mps 755 mmHg 64%
    17:00 +13°C° 0 mm 6 mps 755 mmHg 66%
    18:00 +11°C° 0 mm 6 mps 756 mmHg 67%
    19:00 +9°C° 0 mm 6 mps 756 mmHg 69%
    20:00 +9°C° 0 mm 6 mps 757 mmHg 70%
    21:00 +8°C° 0 mm 6 mps 757 mmHg 72%
    22:00 +8°C° 0 mm 6 mps 757 mmHg 73%
    23:00 +8°C° 0 mm 6 mps 758 mmHg 75%

    Tomorrow, 16 December, Sunday

    Time Temperature Precipitation Wind Pressure Humidity
    00:00 +7°C° 0 mm 5 mps 758 mmHg 76%
    01:00 +7°C° 0 mm 5 mps 758 mmHg 77%
    02:00 +7°C° 0 mm 5 mps 758 mmHg 78%
    03:00 +7°C° 0 mm 5 mps 759 mmHg 79%
    04:00 +6°C° 0 mm 5 mps 759 mmHg 79%
    05:00 +6°C° 0 mm 5 mps 759 mmHg 80%
    06:00 +6°C° 0 mm 4 mps 760 mmHg 80%
    07:00 +6°C° 0 mm 4 mps 760 mmHg 80%
    08:00 +8°C° 0 mm 4 mps 761 mmHg 74%
    09:00 +11°C° 0 mm 3 mps 761 mmHg 67%
    10:00 +13°C° 0 mm 3 mps 762 mmHg 60%
    11:00 +13°C° 0 mm 3 mps 762 mmHg 56%
    12:00 +14°C° 0 mm 3 mps 761 mmHg 51%
    13:00 +16°C° 0 mm 3 mps 761 mmHg 47%
    14:00 +16°C° 0 mm 3 mps 761 mmHg 50%
    15:00 +16°C° 0 mm 3 mps 761 mmHg 52%
    16:00 +14°C° 0 mm 3 mps 761 mmHg 55%
    17:00 +13°C° 0 mm 3 mps 762 mmHg 59%
    18:00 +12°C° 0 mm 3 mps 762 mmHg 63%
    19:00 +11°C° 0 mm 3 mps 763 mmHg 67%
    20:00 +11°C° 0 mm 3 mps 763 mmHg 68%
    21:00 +11°C° 0 mm 3 mps 763 mmHg 69%
    22:00 +10°C° 0 mm 3 mps 763 mmHg 70%
    23:00 +10°C° 0 mm 3 mps 762 mmHg 70%

    Day after tomorrow, 17 December, Monday

    Time Temperature Precipitation Wind Pressure Humidity
    00:00 +10°C° 0 mm 3 mps 762 mmHg 71%
    01:00 +10°C° 0 mm 3 mps 762 mmHg 72%
    02:00 +10°C° 0 mm 4 mps 762 mmHg 77%
    03:00 +10°C° 0 mm 5 mps 761 mmHg 82%
    04:00 +10°C° 0 mm 5 mps 761 mmHg 88%
    05:00 +10°C° 0 mm 5 mps 761 mmHg 88%
    06:00 +11°C° 0 mm 6 mps 761 mmHg 89%
    07:00 +11°C° 0 mm 6 mps 761 mmHg 89%
    08:00 +14°C° 0 mm 7 mps 761 mmHg 81%
    09:00 +16°C° 0 mm 7 mps 761 mmHg 73%
    10:00 +17°C° 0 mm 7 mps 761 mmHg 66%
    11:00 +18°C° 0 mm 8 mps 760 mmHg 63%
    12:00 +18°C° 0 mm 8 mps 760 mmHg 61%
    13:00 +19°C° 0 mm 9 mps 759 mmHg 58%
    14:00 +18°C° 0 mm 9 mps 759 mmHg 62%
    15:00 +17°C° 0 mm 9 mps 759 mmHg 66%
    16:00 +17°C° 0 mm 10 mps 759 mmHg 69%
    17:00 +16°C° 0 mm 10 mps 759 mmHg 72%
    18:00 +14°C° 0 mm 10 mps 759 mmHg 75%
    19:00 +13°C° 0 mm 10 mps 759 mmHg 77%
    20:00 +12°C° 0 mm 10 mps 760 mmHg 76%
    21:00 +12°C° 0 mm 10 mps 760 mmHg 75%
    22:00 +12°C° 0 mm 9 mps 760 mmHg 74%
    23:00 +11°C° 0 mm 10 mps 760 mmHg 72%

    18 December, Tuesday

    Time Temperature Precipitation Wind Pressure Humidity
    00:00 +11°C° 0 mm 10 mps 760 mmHg 70%
    01:00 +11°C° 0 mm 10 mps 760 mmHg 69%
    02:00 +9°C° 0 mm 10 mps 760 mmHg 68%
    03:00 +9°C° 0 mm 10 mps 760 mmHg 68%
    04:00 +9°C° 0 mm 10 mps 760 mmHg 67%
    05:00 +9°C° 0 mm 10 mps 760 mmHg 70%
    06:00 +10°C° 0 mm 9 mps 760 mmHg 72%
    07:00 +10°C° 0 mm 9 mps 760 mmHg 75%
    08:00 +11°C° 0 mm 9 mps 760 mmHg 69%
    09:00 +12°C° 0 mm 9 mps 761 mmHg 63%
    10:00 +13°C° 0 mm 9 mps 761 mmHg 56%
    11:00 +13°C° 0 mm 9 mps 761 mmHg 55%
    12:00 +15°C° 0 mm 9 mps 761 mmHg 54%
    13:00 +15°C° 0 mm 8 mps 760 mmHg 52%
    14:00 +13°C° 0 mm 8 mps 761 mmHg 54%
    15:00 +14°C° 0 mm 7 mps 761 mmHg 55%
    16:00 +12°C° 0 mm 7 mps 761 mmHg 57%
    17:00 +11°C° 0 mm 6 mps 762 mmHg 60%
    18:00 +10°C° 0 mm 6 mps 762 mmHg 64%
    19:00 +9°C° 0 mm 6 mps 763 mmHg 68%
    20:00 +8°C° 0 mm 5 mps 763 mmHg 70%
    21:00 +8°C° 0 mm 5 mps 764 mmHg 73%
    22:00 +8°C° 0 mm 4 mps 764 mmHg 76%
    23:00 +7°C° 0 mm 4 mps 764 mmHg 78%

    19 December, Wednesday

    Time Temperature Precipitation Wind Pressure Humidity
    00:00 +7°C° 0 mm 4 mps 764 mmHg 81%
    01:00 +7°C° 0 mm 4 mps 764 mmHg 83%
    02:00 +7°C° 0 mm 4 mps 764 mmHg 84%
    03:00 +7°C° 0 mm 4 mps 764 mmHg 84%
    04:00 +8°C° 0 mm 3 mps 764 mmHg 85%
    05:00 +7°C° 0 mm 3 mps 764 mmHg 84%
    06:00 +7°C° 0 mm 3 mps 765 mmHg 83%
    07:00 +7°C° 0 mm 2 mps 765 mmHg 82%
    08:00 +9°C° 0 mm 2 mps 765 mmHg 73%
    09:00 +12°C° 0 mm 2 mps 766 mmHg 64%
    10:00 +14°C° 0 mm 1 mps 766 mmHg 56%
    11:00 +15°C° 0 mm 2 mps 766 mmHg 53%
    12:00 +16°C° 0 mm 2 mps 765 mmHg 51%
    13:00 +17°C° 0 mm 2 mps 765 mmHg 49%
    14:00 +16°C° 0 mm 3 mps 765 mmHg 54%
    15:00 +14°C° 0 mm 3 mps 764 mmHg 58%
    16:00 +14°C° 0 mm 3 mps 764 mmHg 63%
    17:00 +12°C° 0 mm 3 mps 764 mmHg 67%
    18:00 +11°C° 0 mm 3 mps 764 mmHg 72%
    19:00 +10°C° 0 mm 3 mps 765 mmHg 77%
    20:00 +10°C° 0 mm 3 mps 765 mmHg 76%
    21:00 +8°C° 0 mm 4 mps 764 mmHg 74%
    22:00 +8°C° 0 mm 4 mps 764 mmHg 73%
    23:00 +8°C° 0 mm 4 mps 764 mmHg 72%

    20 December, Thursday

    Time Temperature Precipitation Wind Pressure Humidity
    00:00 +10°C° 0 mm 4 mps 764 mmHg 71%
    01:00 +10°C° 0 mm 4 mps 764 mmHg 70%
    02:00 +10°C° 0 mm 4 mps 763 mmHg 73%
    03:00 +10°C° 0 mm 4 mps 763 mmHg 76%
    04:00 +10°C° 0 mm 4 mps 763 mmHg 79%
    05:00 +11°C° 0 mm 4 mps 763 mmHg 82%
    06:00 +10°C° 0 mm 5 mps 763 mmHg 85%
    07:00 +10°C° 0 mm 5 mps 763 mmHg 89%
    08:00 +13°C° 0 mm 5 mps 763 mmHg 85%
    09:00 +14°C° 0 mm 6 mps 763 mmHg 81%
    10:00 +16°C° 0 mm 6 mps 763 mmHg 76%
    11:00 +16°C° 0 mm 6 mps 763 mmHg 74%
    12:00 +16°C° 0 mm 7 mps 762 mmHg 72%
    13:00 +17°C° 0 mm 7 mps 762 mmHg 70%
    14:00 +16°C° 0.1 mm 7 mps 762 mmHg 73%
    15:00 +15°C° 0.1 mm 7 mps 762 mmHg 77%
    16:00 +15°C° 0.1 mm 7 mps 762 mmHg 80%
    17:00 +14°C° 0.1 mm 7 mps 762 mmHg 81%
    18:00 +13°C° 0.1 mm 6 mps 762 mmHg 81%
    19:00 +13°C° 0.1 mm 6 mps 763 mmHg 81%
    20:00 +11°C° 0 mm 6 mps 763 mmHg 83%
    21:00 +10°C° 0 mm 5 mps 763 mmHg 85%
    22:00 +10°C° 0 mm 5 mps 763 mmHg 86%
    23:00 +9°C° 0 mm 5 mps 763 mmHg 86%
    Show more